Regional Weather Roundup
Issued by NWS Albany, NY

Home | Current Version | Previous Version | Text Only | Print | Product List | Glossary On
Versions: 1 2 3 4 5 6 7 8 9 10 11 12 13 14 15 16 17 18 19 20 21 22 23 24 25 26 27
000
ASUS41 KALY 202110
RWRALY

NEW YORK STATE HOURLY WEATHER ROUNDUP
NATIONAL WEATHER SERVICE ALBANY NY
400 PM EST SAT JAN 20 2018

NOTE: "FAIR" INDICATES FEW OR NO CLOUDS BELOW 12,000 FEET WITH NO
SIGNIFICANT WEATHER AND/OR NO OBSTRUCTIONS TO VISIBILITY.

NYZ032-033-038>043-046>054-057>066-NYZ062>081-082-084-202200-
EAST


CITY           SKY/WX    TMP DP  RH WIND       PRES   REMARKS
ALBANY         FAIR      45  27  49 NW13G22   29.85R
GLENS FALLS    FAIR      45  28  51 SW10      29.81R
POUGHKEEPSIE   FAIR      46  25  43 SW10      29.85R
NEWBURGH       MOCLDY    45  28  53 W14       29.86R
MONTGOMERY     FAIR      44  26  49 W13       29.85R
WHITE PLAINS   FAIR      46  26  45 W9        29.86R
ISLIP          MOCLDY    52  26  36 W14G23    29.87R
NEW YORK CITY  MOCLDY    50  25  37 W20G25    29.89R
CENTRAL PARK   FAIR      49  26  41 MISG      29.91R
$$

NYZ005>009-017-018-044>046-055-056-202200-
CENTRAL


CITY           SKY/WX    TMP DP  RH WIND       PRES   REMARKS
FULTON         FAIR      42  28  57 W16       29.90R
SYRACUSE       FAIR      41  29  62 W13       29.89R
ROME           FAIR      42  28  57 W15       29.88R
ELMIRA         FAIR      46  28  49 W10       29.89R
BINGHAMTON     FAIR      42  26  53 W9        29.87R
MONTICELLO     FAIR      42  26  53 W8        29.86R
$$

NYZ026>034-041>043-087-202200-
NORTH


CITY           SKY/WX    TMP DP  RH WIND       PRES   REMARKS
WATERTOWN      FAIR      37  32  82 W15G23    29.88R WCI  28
FORT DRUM      NOT AVBL
OGDENSBURG     FAIR      39  32  75 SW14G22   29.81R WCI  31
MASSENA        CLOUDY    40  31  70 SW20G33   29.79R WCI  30
SARANAC LAKE   CLOUDY    34  29  82 W8G20     29.75R WCI  27
PLATTSBURGH    MOCLDY    42  28  57 VRB5      29.74R
$$

NYZ001>004-010>016-019>021-085-202200-
WEST


CITY           SKY/WX    TMP DP  RH WIND       PRES   REMARKS
NIAGARA FALLS  FAIR      39  28  64 SW17      29.93R WCI  30
BUFFALO        FAIR      36  29  75 SW16      29.93R WCI  26
DUNKIRK        FAIR      47  28  47 SW16G28   29.98R
JAMESTOWN      FAIR      39  26  59 SW14      29.94R WCI  31
WELLSVILLE     FAIR      44  27  51 W13G22    29.90R
ROCHESTER      MOCLDY    41  28  60 W23G32    29.92R
PENN YAN       FAIR      44  25  47 W12       29.89R
$$

             KEY
       WCI = WIND CHILL INDEX
       VSB = VISIBILITY
       HX  = HEAT INDEX
$$




USA.gov is the U.S. government's official web portal to all federal, state and local government web resources and services.